Location: Geelbroek
(52.9503°N, 6.5712°E)
Time: 11:20:24
(UTC+00:00)

RESURS DK-1 - Pass Details

Date: 15 May 2026
Orbit: 522 x 531 km, 69.9° (Epoch: 7 June)

Event Time Altitude Azimuth Distance (km) Brightness Sun altitude
Rises 20:35:29 0° 331° (NNW) 2,682 7.8 -8.7°
Reaches altitude 10° 20:38:11 10° 350° (N) 1,791 6.0 -9.0°
Maximum altitude 20:41:06 19° 37° (NE) 1,307 4.4 -9.3°
Drops below altitude 10° 20:44:00 10° 84° (E) 1,787 4.6 -9.6°
Enters shadow 20:45:24 - 95° (E) 2,223 5.0 -9.7°
